Location: Arbon
(43.0005°N, 0.7472°E)
Time: 10:50:23
(UTC+00:00)

SR - Pass Details

Date: 26 November 2020
Orbit: 575 x 880 km, 66.7° (Epoch: 21 January)

Event Time Altitude Azimuth Distance (km) Brightness Sun altitude
Rises 20:19:34 0° 255° (WSW) 2,822 ? -42.3°
Enters shadow 20:21:06 - 264° (W) 2,319 ? -42.6°
Reaches altitude 10° 20:22:23 10° 275° (W) 1,959 - -42.8°
Maximum altitude 20:25:23 18° 319° (NW) 1,561 - -43.3°
Drops below altitude 10° 20:28:32 10° 2° (N) 2,068 - -43.9°
Sets 20:31:38 0° 21° (NNE) 3,047 - -44.5°
